EKRAN 2 DEB, 12996

Orbit data source: Space-Track

EKRAN 2 DEB, 12996 is space debris in GEO originally from a launch on Tue, 20 Sep 1977 UTC launched from the Tyuratam Missile And Space Complex (TTMTR). Debris objects in space refer to the collection of defunct objects orbiting the Earth. Examples of debris include non-operational satellites, rocket bodies, and fragments generated from explosions, collisions, or faulty payload assembly.

Not visible in the next 10 days
Identifier
12996, 1977-092J
Orbit
GEO
Country
Flag of CISCIS
Related business
Manufacturer
Unknown
Mission
Spacecraft
Bus & Motor
Unknown
Mass
Unknown
Launch date (UTC)
1977-09-20 (48 years ago)
Launch vehicle
Unknown
Launch site
Tyuratam Missile And Space Complex (TTMTR)
Object type
Payload
Rocket body
Debris
Shape & HBR
Unknown shape, 1.1 m
Radar Cross Section
Medium (>0.1 m² and <1 m²)

Expand to show TLE details & history
Last TLE update: 10 hours ago

TLE from 10 hours ago
0 EKRAN 2 DEB
1 12996U 77092J   26061.75373832  .00000066  00000-0  00000+0 0  9996
2 12996   4.5794 276.2834 0015494 312.1158 222.3849  1.00047830 83446
Epoch: 2026-03-02T18:05Z
TLE epoch observation values (Epoch: 2026-03-02T18:05:22.990Z)
Latitude
0.42827°
Longitude
18.84431°
Altitude
35,896.898 km
Speed
3.069 km/s
True Right ascension
06h 02m 55s
True Declination
0° 25' 40"
Sunlit
Object was in daylight at epoch
Visualization orbit readout
Latitude
Unknown
Longitude
Unknown
Altitude
Unknown
Speed
Unknown
Apparent Right ascension
Unknown
Apparent Declination
Unknown
Sunlit
N/A
Visualization observer readout
Local Sidereal Time
07:19:30
Azimuth
Unknown
Elevation
Unknown
Doppler factor
Unknown
Orbital elements
Apogee altitude
35,915.983 km
Perigee altitude
35,785.125 km
Semi-major axis
42,228.691 km
Eccentricity
0.00155
Inclination
4.5794°
RAAN
276.2834°
Arg. of periapsis
312.1158°
True anomaly
222.26538°
Mean anomaly
222.3849°
Eccentric anomaly
222.32513°
Mean motion
0.25011 °/min
Orbital period
1,439.36 mins
BSTAR
0
Loading maneuver chart data...
Computing Atmospheric mass density...
Loading historical data...
Loading historical data...
Loading historical data...
Loading historical data...
Loading historical data...
Loading historical data...
Loading historical data...

Documentation

Showing up to 5 results
|